N3TTT-13 Weather Reports


time (UTC)temp
C
wind
direction
speed
KPH
gust
KPH
rain 1hr
cm
rain 24hr
cm
rain mn
cm
humidity
%
barometer
mb
20260507031350 17 258 0.0 0.0 0.00 0.00 0.00 90 1009.2
20260507030846 17 258 0.0 0.0 0.00 0.00 0.00 90 1009.1
20260507030344 17 259 0.0 0.0 0.00 0.00 0.00 90 1009.1
20260507025840 17 258 0.0 0.0 0.00 0.00 0.00 90 1009.0
20260507025338 17 258 0.0 0.0 0.00 0.00 0.00 90 1009.0
20260507024836 17 258 0.0 0.0 0.00 0.00 0.00 90 1008.8
20260507024333 17 259 0.0 0.0 0.00 0.00 0.00 90 1009.0
20260507023828 17 258 0.0 0.0 0.00 0.00 0.00 90 1008.8
20260507023325 17 258 0.0 0.0 0.00 0.00 0.00 90 1009.1
20260507022823 17 258 0.0 0.0 0.00 0.00 0.00 90 1009.3
20260507022319 17 259 0.0 0.0 0.00 0.00 0.00 89 1009.1
20260507021815 17 259 0.0 0.0 0.00 0.00 0.00 89 1009.1
20260507021311 17 261 0.0 0.0 0.00 0.00 0.00 89 1009.3
20260507020809 17 258 0.0 0.0 0.00 0.00 0.00 89 1009.5
20260507020305 17 258 0.0 0.0 0.00 0.00 0.00 89 1009.6
20260507015803 17 258 0.0 0.0 0.00 0.00 0.00 89 1009.9
20260507015300 17 253 0.0 0.0 0.00 0.00 0.00 89 1010.1
20260507014757 17 240 0.0 0.0 0.00 0.00 0.00 89 1009.9
20260507014253 17 240 0.0 0.0 0.00 0.00 0.00 89 1009.9
20260507013749 17 240 0.0 0.0 0.00 0.00 0.00 88 1010.0
20260507013247 17 240 0.0 0.0 0.00 0.00 0.00 88 1009.9
20260507012744 17 240 0.0 0.0 0.00 0.00 0.00 87 1009.7
20260507012245 17 239 0.0 0.0 0.00 0.00 0.00 87 1009.5
20260507011743 17 244 0.0 0.0 0.00 0.00 0.00 87 1009.6
20260507011239 17 242 0.0 0.0 0.00 0.00 0.00 87 1009.7
20260507010738 18 240 0.0 0.0 0.00 0.00 0.00 87 1009.5
20260507010235 18 240 0.0 0.0 0.00 0.00 0.00 86 1009.6
20260507005733 18 235 0.0 0.0 0.00 0.00 0.00 86 1009.7
20260507005229 18 253 0.0 0.0 0.00 0.00 0.00 86 1009.7
20260507004725 18 254 0.0 0.0 0.00 0.00 0.00 86 1009.5
20260507004223 18 241 0.0 0.0 0.00 0.00 0.00 85 1009.5
20260507003719 18 252 0.0 0.0 0.00 0.00 0.00 85 1009.7
20260507003214 18 254 0.0 0.0 0.00 0.00 0.00 85 1009.8
20260507002711 18 252 0.0 0.0 0.00 0.00 0.00 85 1009.8
20260507002207 18 227 0.0 0.0 0.00 0.00 0.00 85 1009.6
20260507001704 18 262 0.0 0.0 0.00 0.00 0.00 84 1009.7
20260507001201 18 257 0.0 0.0 0.00 0.00 0.00 84 1009.4
20260507000657 19 238 1.6 1.6 0.00 0.00 0.00 84 1009.1
20260507000153 19 163 3.2 3.2 0.00 0.00 0.00 83 1009.0
20260506235650 19 266 0.0 1.6 0.00 0.00 0.00 83 1009.0
20260506235145 19 229 1.6 1.6 0.00 0.00 0.00 83 1008.9
20260506234643 19 307 0.0 0.0 0.00 0.00 0.00 83 1008.8
20260506234140 20 239 0.0 0.0 0.00 0.00 0.00 82 1009.0
20260506233637 20 188 1.6 1.6 0.00 0.00 0.00 82 1009.0
20260506233134 20 261 1.6 1.6 0.00 0.00 0.00 82 1009.0
20260506232630 20 233 0.0 1.6 0.00 0.00 0.00 82 1009.1
20260506232125 20 88 0.0 1.6 0.00 0.00 0.00 81 1009.0
20260506231623 20 253 0.0 0.0 0.00 0.00 0.00 81 1009.1
20260506231121 20 184 3.2 4.8 0.00 0.00 0.00 81 1008.8
20260506230618 20 240 0.0 1.6 0.00 0.00 0.00 81 1009.2
20260506230115 20 272 1.6 3.2 0.00 0.00 0.00 81 1009.1
20260506225611 20 268 0.0 1.6 0.00 0.00 0.00 81 1009.3
20260506225108 20 130 3.2 3.2 0.00 0.00 0.00 81 1009.1
20260506224605 20 253 1.6 1.6 0.00 0.00 0.00 81 1009.0
20260506224101 20 268 4.8 4.8 0.00 0.00 0.00 80 1009.2
20260506223557 20 221 1.6 1.6 0.00 0.00 0.00 81 1009.0
20260506223053 20 141 1.6 3.2 0.00 0.00 0.00 80 1009.0
20260506222550 20 165 1.6 3.2 0.00 0.00 0.00 80 1008.8
20260506222047 20 252 1.6 1.6 0.00 0.00 0.00 79 1009.0
20260506221544 20 304 1.6 3.2 0.00 0.00 0.00 80 1009.0
20260506221042 20 273 1.6 1.6 0.00 0.00 0.00 79 1009.1
20260506220538 20 274 3.2 4.8 0.00 0.00 0.00 79 1008.9
20260506220034 21 248 3.2 3.2 0.00 0.00 0.00 79 1008.9
20260506215531 21 278 0.0 1.6 0.00 0.00 0.00 79 1008.7
20260506215026 21 208 4.8 9.7 0.00 0.00 0.00 79 1008.8
20260506214524 21 212 1.6 1.6 0.00 0.00 0.00 79 1008.8
20260506214021 21 251 1.6 1.6 0.00 0.00 0.00 79 1008.8
20260506213519 21 5 1.6 3.2 0.00 0.00 0.00 79 1009.0
20260506213016 21 244 1.6 1.6 0.00 0.00 0.00 79 1008.6
20260506212512 21 255 3.2 3.2 0.00 0.00 0.00 78 1008.7
20260506212007 21 298 6.4 8.0 0.00 0.00 0.00 79 1008.6
20260506211503 21 229 3.2 3.2 0.00 0.00 0.00 78 1008.8
20260506211001 21 213 1.6 1.6 0.00 0.00 0.00 78 1008.4
20260506210457 21 261 1.6 1.6 0.00 0.00 0.00 78 1008.4
20260506205954 21 357 3.2 3.2 0.00 0.00 0.00 78 1008.6
20260506205450 21 268 4.8 4.8 0.00 0.00 0.00 77 1008.6
20260506204946 21 249 1.6 1.6 0.00 0.00 0.00 77 1008.2
20260506204444 21 232 3.2 4.8 0.00 0.00 0.00 78 1008.3
20260506203941 21 262 1.6 1.6 0.00 0.00 0.00 77 1008.4
20260506203438 21 234 1.6 1.6 0.00 0.00 0.00 77 1008.3
20260506202935 21 208 4.8 8.0 0.00 0.00 0.00 77 1008.2
20260506202432 21 162 3.2 3.2 0.00 0.00 0.00 77 1008.1
20260506201929 21 223 8.0 16.1 0.00 0.00 0.00 77 1008.2
20260506201426 21 239 4.8 4.8 0.00 0.00 0.00 77 1008.3
20260506200923 21 224 3.2 3.2 0.00 0.00 0.00 77 1008.2
20260506200419 21 278 4.8 8.0 0.00 0.00 0.00 77 1008.2
20260506195916 21 278 1.6 1.6 0.00 0.00 0.00 78 1008.4
20260506195413 21 258 3.2 3.2 0.00 0.00 0.00 78 1008.4
20260506194909 21 240 4.8 4.8 0.00 0.00 0.00 76 1008.6
20260506194406 21 153 4.8 4.8 0.00 0.00 0.00 77 1008.5
20260506193903 21 247 1.6 3.2 0.00 0.00 0.00 78 1008.6
20260506193400 21 83 1.6 3.2 0.00 0.00 0.00 77 1008.6
20260506192856 21 218 8.0 14.5 0.00 0.00 0.00 77 1008.7
20260506192354 21 281 0.0 1.6 0.00 0.00 0.00 77 1008.6
20260506191851 21 342 3.2 4.8 0.00 0.00 0.00 77 1008.8
20260506191347 21 258 1.6 4.8 0.00 0.00 0.00 77 1008.6
20260506190844 21 192 3.2 3.2 0.00 0.00 0.00 77 1009.0
20260506190340 21 136 4.8 4.8 0.00 0.00 0.00 77 1008.9
20260506185837 21 137 4.8 4.8 0.00 0.00 0.00 77 1008.9
20260506185334 21 215 3.2 3.2 0.00 0.00 0.00 78 1008.9
20260506184831 21 224 1.6 1.6 0.00 0.00 0.00 77 1009.3
20260506184328 20 255 4.8 4.8 0.00 0.00 0.00 78 1008.9
20260506183826 20 258 6.4 9.7 0.00 0.00 0.00 78 1009.2
20260506183321 20 165 1.6 1.6 0.00 0.00 0.00 79 1009.3
20260506182819 20 142 4.8 8.0 0.00 0.00 0.00 78 1009.3
20260506182315 20 225 6.4 9.7 0.00 0.00 0.00 78 1009.3
20260506181813 20 169 1.6 4.8 0.00 0.00 0.00 78 1009.1
20260506181311 20 187 11.3 14.5 0.00 0.00 0.00 78 1009.2
20260506180808 20 200 1.6 3.2 0.00 0.00 0.00 79 1009.4
20260506180303 20 217 9.7 14.5 0.00 0.00 0.00 78 1009.5
20260506175800 20 303 4.8 8.0 0.00 0.00 0.00 80 1009.7
20260506175257 19 273 4.8 8.0 0.00 0.00 0.00 80 1009.7
20260506174754 20 170 9.7 14.5 0.00 0.00 0.00 80 1009.7
20260506174252 20 279 1.6 1.6 0.00 0.00 0.00 81 1009.5
20260506173749 19 272 3.2 4.8 0.00 0.00 0.00 82 1009.4
20260506173246 19 164 9.7 11.3 0.00 0.00 0.00 82 1009.7
20260506172742 18 180 8.0 12.9 0.00 0.00 0.00 84 1009.7
20260506172239 18 261 1.6 1.6 0.00 0.00 0.00 84 1009.8
20260506171737 18 180 1.6 3.2 0.00 0.00 0.00 85 1009.7
20260506171234 18 249 1.6 1.6 0.00 0.00 0.00 86 1009.7
20260506170731 17 246 3.2 4.8 0.00 0.00 0.00 87 1009.7
20260506170228 17 262 4.8 4.8 0.00 0.00 0.00 87 1010.0
20260506165726 17 245 1.6 1.6 0.00 0.00 0.00 89 1010.1
20260506165223 17 226 1.6 1.6 0.00 0.00 0.00 88 1010.1
20260506164720 17 244 1.6 1.6 0.00 0.00 0.00 88 1010.2
20260506164217 17 201 1.6 1.6 0.00 0.00 0.00 89 1010.1
20260506163714 17 310 3.2 4.8 0.00 0.00 0.00 89 1010.1
20260506163209 17 224 3.2 4.8 0.00 0.00 0.00 89 1010.0
20260506162705 17 286 1.6 1.6 0.00 0.00 0.00 89 1010.1
20260506162203 17 208 1.6 3.2 0.00 0.00 0.00 88 1010.2
20260506161700 17 259 1.6 3.2 0.00 0.00 0.00 87 1010.2
20260506161156 17 241 1.6 1.6 0.00 0.00 0.00 88 1010.5
20260506160654 17 202 4.8 8.0 0.00 0.00 0.00 87 1011.0
20260506160151 18 184 4.8 12.9 0.00 0.00 0.00 86 1011.0
20260506155649 18 126 1.6 1.6 0.00 0.00 0.00 84 1011.2
20260506155146 19 220 1.6 1.6 0.00 0.00 0.00 79 1011.2
20260506153248 20 268 3.2 4.8 0.00 0.00 0.00 79 1011.3
20260506152745 20 261 1.6 1.6 0.00 0.00 0.00 77 1011.0
20260506152242 20 215 1.6 3.2 0.00 0.00 0.00 78 1011.3
20260506151741 20 209 3.2 3.2 0.00 0.00 0.00 77 1011.1
20260506151237 20 241 1.6 1.6 0.00 0.00 0.00 77 1011.3
20260506150734 20 286 1.6 3.2 0.00 0.00 0.00 76 1011.1
20260506150231 20 268 4.8 4.8 0.00 0.00 0.00 76 1011.4
20260506145728 20 296 4.8 4.8 0.00 0.00 0.00 74 1011.0
20260506145224 21 234 1.6 3.2 0.00 0.00 0.00 71 1011.2
20260506144722 21 39 1.6 3.2 0.00 0.00 0.00 70 1011.0
20260506144219 21 101 0.0 1.6 0.00 0.00 0.00 69 1011.0
20260506143716 21 261 0.0 1.6 0.00 0.00 0.00 70 1011.2
20260506143214 21 89 3.2 3.2 0.00 0.00 0.00 69 1011.3
20260506142712 22 263 3.2 4.8 0.00 0.00 0.00 67 1011.2
20260506142210 22 255 4.8 4.8 0.00 0.00 0.00 67 1011.1
20260506141708 21 249 0.0 1.6 0.00 0.00 0.00 69 1011.1
20260506141206 21 186 3.2 3.2 0.00 0.00 0.00 68 1011.1
20260506140703 21 257 1.6 3.2 0.00 0.00 0.00 69 1011.2
20260506140200 21 185 6.4 8.0 0.00 0.00 0.00 69 1011.2
20260506135657 21 204 1.6 1.6 0.00 0.00 0.00 69 1011.1
20260506135153 21 222 0.0 1.6 0.00 0.00 0.00 69 1011.1
20260506134650 21 227 8.0 11.3 0.00 0.00 0.00 67 1010.9
20260506134146 21 279 1.6 1.6 0.00 0.00 0.00 69 1010.8
20260506133643 20 249 4.8 4.8 0.00 0.00 0.00 69 1010.9
20260506133140 20 329 3.2 3.2 0.00 0.00 0.00 70 1011.3
20260506132637 20 204 1.6 3.2 0.00 0.00 0.00 70 1011.2
20260506132134 21 271 0.0 0.0 0.00 0.00 0.00 70 1011.0
20260506131632 21 266 3.2 4.8 0.00 0.00 0.00 69 1011.0
20260506131128 20 341 1.6 1.6 0.00 0.00 0.00 70 1011.0
20260506130625 20 189 3.2 3.2 0.00 0.00 0.00 70 1011.1
20260506130122 20 183 4.8 4.8 0.00 0.00 0.00 69 1011.1
20260506125620 20 298 4.8 4.8 0.00 0.00 0.00 70 1011.1
20260506125118 20 164 4.8 8.0 0.00 0.00 0.00 70 1011.4
20260506124615 20 253 3.2 4.8 0.00 0.00 0.00 71 1011.1
20260506124113 20 306 1.6 1.6 0.00 0.00 0.00 71 1011.4
20260506123610 20 126 4.8 9.7 0.00 0.00 0.00 71 1011.4
20260506123109 20 280 3.2 3.2 0.00 0.00 0.00 71 1011.4
20260506122605 19 272 3.2 4.8 0.00 0.00 0.00 71 1011.4
20260506122103 19 253 1.6 1.6 0.00 0.00 0.00 72 1011.3
20260506121601 19 240 4.8 9.7 0.00 0.00 0.00 72 1011.5
20260506121056 19 136 11.3 12.9 0.00 0.00 0.00 71 1011.7
20260506120555 20 251 1.6 1.6 0.00 0.00 0.00 71 1011.4
20260506120051 19 184 3.2 4.8 0.00 0.00 0.00 72 1011.4
20260506115549 18 188 6.4 9.7 0.00 0.00 0.00 73 1011.3
20260506115048 18 124 4.8 8.0 0.00 0.00 0.00 74 1011.4
20260506114545 18 148 4.8 8.0 0.00 0.00 0.00 74 1011.3
20260506114043 18 231 3.2 3.2 0.00 0.00 0.00 75 1011.1
20260506113541 18 173 3.2 3.2 0.00 0.00 0.00 75 1011.0
20260506113038 18 261 1.6 1.6 0.00 0.00 0.00 75 1011.5
20260506112534 18 124 3.2 3.2 0.00 0.00 0.00 76 1011.3
20260506112032 18 222 3.2 4.8 0.00 0.00 0.00 75 1011.0
20260506111530 18 303 4.8 8.0 0.00 0.00 0.00 74 1011.1
20260506111027 19 200 1.6 1.6 0.00 0.00 0.00 74 1011.0
20260506110524 18 185 3.2 8.0 0.00 0.00 0.00 74 1011.3
20260506110021 18 237 1.6 1.6 0.00 0.00 0.00 75 1011.0
20260506105517 18 306 1.6 4.8 0.00 0.00 0.00 75 1011.2
20260506105015 18 248 0.0 0.0 0.00 0.00 0.00 76 1010.9
20260506104513 18 205 8.0 11.3 0.00 0.00 0.00 76 1010.9
20260506104010 17 207 3.2 3.2 0.00 0.00 0.00 77 1011.1
20260506103507 17 240 0.0 1.6 0.00 0.00 0.00 78 1011.2
20260506103004 17 206 4.8 4.8 0.00 0.00 0.00 78 1011.3
20260506102503 17 128 3.2 4.8 0.00 0.00 0.00 78 1011.2
20260506101959 17 231 3.2 3.2 0.00 0.00 0.00 79 1011.2
20260506101455 17 237 0.0 1.6 0.00 0.00 0.00 79 1011.3
20260506100953 17 230 3.2 3.2 0.00 0.00 0.00 79 1011.2
20260506100451 17 195 1.6 3.2 0.00 0.00 0.00 79 1011.2
20260506095949 17 201 3.2 3.2 0.00 0.00 0.00 79 1011.1
20260506095447 17 293 3.2 3.2 0.00 0.00 0.00 79 1011.2
20260506094943 17 235 3.2 3.2 0.00 0.00 0.00 79 1011.1
20260506094442 17 199 3.2 3.2 0.00 0.00 0.00 79 1011.1
20260506093939 17 216 4.8 4.8 0.00 0.00 0.00 79 1011.0
20260506093437 17 252 0.0 1.6 0.00 0.00 0.00 79 1010.9
20260506092934 17 149 8.0 12.9 0.00 0.00 0.00 79 1011.0
20260506092432 17 201 1.6 1.6 0.00 0.00 0.00 79 1010.8
20260506091929 17 293 1.6 3.2 0.00 0.00 0.00 78 1010.9
20260506091427 17 186 3.2 4.8 0.00 0.00 0.00 78 1010.7
20260506090924 17 299 3.2 4.8 0.00 0.00 0.00 78 1011.0
20260506090421 17 275 4.8 9.7 0.00 0.00 0.00 78 1010.8
20260506085918 17 234 3.2 3.2 0.00 0.00 0.00 79 1010.9
20260506085415 17 200 9.7 24.1 0.00 0.00 0.00 79 1010.9
20260506084911 17 199 6.4 11.3 0.00 0.00 0.00 79 1011.0
20260506084408 17 280 8.0 11.3 0.00 0.00 0.00 79 1011.0
20260506083904 17 124 4.8 4.8 0.00 0.00 0.00 80 1011.1
20260506083401 17 193 1.6 1.6 0.00 0.00 0.00 80 1011.1
20260506082859 18 240 1.6 3.2 0.00 0.00 0.00 80 1010.9
20260506082355 18 209 3.2 4.8 0.00 0.00 0.00 80 1011.2
20260506081851 17 239 3.2 3.2 0.00 0.00 0.00 80 1011.4
20260506081350 18 285 0.0 1.6 0.00 0.00 0.00 80 1011.4
20260506080847 18 267 3.2 3.2 0.00 0.00 0.00 80 1011.2
20260506080343 18 352 4.8 9.7 0.00 0.00 0.00 80 1011.3
20260506073328 18 182 4.8 4.8 0.00 0.00 0.00 79 1011.4
20260506072824 18 207 9.7 16.1 0.00 0.00 0.00 79 1011.3
20260506072322 18 255 4.8 4.8 0.00 0.00 0.00 79 1011.3
20260506071820 18 274 3.2 3.2 0.00 0.00 0.00 79 1011.2
20260506071317 18 245 4.8 8.0 0.00 0.00 0.00 79 1011.2
20260506070814 18 257 6.4 11.3 0.00 0.00 0.00 78 1011.2
20260506070311 18 158 4.8 9.7 0.00 0.00 0.00 79 1011.2
20260506062248 19 173 1.6 3.2 0.00 0.00 0.00 78 1011.6
20260506061744 19 214 3.2 4.8 0.00 0.00 0.00 78 1011.6
20260506061241 19 264 3.2 4.8 0.00 0.00 0.00 78 1011.7
20260506060740 19 201 4.8 9.7 0.00 0.00 0.00 77 1011.4
20260506060237 19 227 1.6 3.2 0.00 0.00 0.00 78 1011.6
20260506051209 20 274 3.2 3.2 0.00 0.00 0.00 75 1011.7
20260506050707 20 197 0.0 1.6 0.00 0.00 0.00 74 1011.7
20260506050204 20 244 3.2 3.2 0.00 0.00 0.00 74 1011.9
20260506044655 20 237 3.2 3.2 0.00 0.00 0.00 74 1012.0
20260506044151 20 257 3.2 4.8 0.00 0.00 0.00 74 1012.0
20260506043649 20 174 4.8 4.8 0.00 0.00 0.00 74 1012.1
20260506043147 20 222 0.0 1.6 0.00 0.00 0.00 74 1012.1
20260506042646 20 240 1.6 1.6 0.00 0.00 0.00 74 1012.1
20260506042143 20 199 8.0 12.9 0.00 0.00 0.00 74 1012.0
20260506041641 20 133 6.4 8.0 0.00 0.00 0.00 73 1012.2
20260506041138 20 172 3.2 3.2 0.00 0.00 0.00 74 1012.0
20260506040635 21 275 1.6 1.6 0.00 0.00 0.00 73 1012.0
20260506040132 20 276 3.2 4.8 0.00 0.00 0.00 73 1011.9
20260506035629 20 244 1.6 1.6 0.00 0.00 0.00 74 1012.0
20260506035126 20 217 0.0 1.6 0.00 0.00 0.00 74 1011.9
20260506034623 20 258 1.6 1.6 0.00 0.00 0.00 74 1011.8
20260506034120 20 235 3.2 3.2 0.00 0.00 0.00 74 1012.0
20260506033617 20 256 3.2 3.2 0.00 0.00 0.00 73 1011.9
20260506033114 20 131 0.0 0.0 0.00 0.00 0.00 73 1011.8
20260506032612 20 272 1.6 1.6 0.00 0.00 0.00 73 1011.8
20260506032108 20 268 0.0 0.0 0.00 0.00 0.00 73 1011.9
20260506031605 20 229 1.6 3.2 0.00 0.00 0.00 73 1011.8